Regional Weather Roundup
Issued by NWS Sterling, VA

Home | Current Version | Previous Version | Graphics & Text | Print | Product List | Glossary On
Versions: 1 2 3 4 5 6 7 8 9 10 11 12 13 14 15 16 17 18 19 20 21 22 23 24 25 26 27 28 29 30 31 32 33 34 35 36 37 38 39 40 41 42 43 44 45 46 47 48 49 50
000
ASUS41 KLWX 180410
RWRLWX

REGIONAL WEATHER ROUNDUP
NATIONAL WEATHER SERVICE BALTIMORE MD/WASHINGTON DC
1100 PM EST WED DEC 17 2014

Note: "FAIR" indicates few or no clouds below 12,000 feet
with no significant weather and/or obstructions to visibility.
 TC=TEMPERATURE CELSIUS

 * =Non NWS site. Station does not report precipitation (e.g. rain,
    snow, etc.), thunder, or fog.

DCZ001-MDZ009-015-VAZ040>042-051-053>054-180500-
WASHINGTON METRO

CITY           SKY/WX    TMP DP  RH WIND       PRES   REMARKS
WASHINGTON NAT PTCLDY    42  23  46 NW14G28   30.07R
DULLES         PTCLDY    36  24  62 NW13      30.07R WCI  27
FT BELVOIR     CLEAR     39  24  53 NW14      30.07R
QUANTICO       CLEAR     38  24  57 N7        30.08R
COLLEGE PARK*  CLEAR     37  27  65 NW12      30.05R
LEESBURG*      PTCLDY    37  28  70 NW14G20   30.07R WCI  29
MANASSAS*      CLEAR     36  27  69 CALM      30.08R
GAITHERSBURG*  PTCLDY    36  21  55 NW12G18   30.08R WCI  27

$$

MDZ006>007-011-014-180500-
BALTIMORE METRO

CITY           SKY/WX    TMP DP  RH WIND       PRES   REMARKS
BWI AIRPORT    PTCLDY    36  24  62 W7        30.03F
MD SCIENCE CTR   N/A     39  23  52 MISG      30.03F
MARTIN STATE   PTCLDY    36  28  75 W12       30.05S WCI  27
ANNAPOLIS      CLEAR     40  24  53 NW10      30.04R
FORT MEADE*    CLEAR     36  25  64 W6        30.07R

$$

MDZ012-015-019>023-180500-
MARYLAND EASTERN SHORE

CITY           SKY/WX    TMP DP  RH WIND       PRES   REMARKS
OCEAN CITY     CLEAR     39  28  64 NW5       30.01S
SALISBURY      CLEAR     40  28  62 NW5       30.02S
BAY BRIDGE AP*   N/A     39  27  60 NW13G20   30.03S
CAMBRIDGE*     CLEAR     41  28  60 NW6       30.03S
EASTON*        CLEAR     40  29  65 NW9       30.07R

$$

MDZ017>025-180500-
SOUTHERN MARYLAND

CITY           SKY/WX    TMP DP  RH WIND       PRES   REMARKS
PATUXENT RIVER PTCLDY    41  26  55 NW14      30.05R
ST INIGOES     PTCLDY    41  24  51 NW7       30.04S
LEONARDTOWN*   PTCLDY    37  27  65 NW3       30.06R

$$

MDZ003>005-180500-
NORTH CENTRAL MARYLAND

CITY           SKY/WX    TMP DP  RH WIND       PRES   REMARKS
FREDERICK*     PTCLDY    37  19  48 NW14G24   30.09R WCI  29
HAGERSTOWN APT CLOUDY    35  21  56 NW18G25   30.05S WCI  24
WESTMINSTER*   PTCLDY    36  23  60 NW15G23   30.02S WCI  26

$$

MDZ501>502-180500-
WESTERN MARYLAND

CITY           SKY/WX    TMP DP  RH WIND       PRES   REMARKS
OAKLAND*       CLOUDY    23  23 100 W13G21    30.00S WCI  11
CUMBERLAND*    CLOUDY    36  23  60 CALM      30.13S

$$

VAZ025>031-180500-
SHENANDOAH VALLEY

CITY           SKY/WX    TMP DP  RH WIND       PRES   REMARKS
WINCHESTER*    CLOUDY    37  19  48 NW10G21   30.07R
FRONT ROYAL*   FAIR      36  23  60 NW3       30.06R
LURAY*         FAIR      34  27  75 E3        30.06S
NEW MARKET*    FAIR      33  22  66 N3        30.06S
STAUNTON*      PTCLDY    32  22  67 CALM      30.07S
WAYNESBORO*    FAIR      34  22  62 SW3       30.04F

$$

WVZ021-048>050-054>055-180500-
EASTERN WEST VIRGINIA PANHANDLE

CITY           SKY/WX    TMP DP  RH WIND       PRES   REMARKS
MARTINSBURG    CLOUDY    37  19  48 W21G28    30.07S WCI  26
PETERSBURG*    MOCLDY    36  20  53 NW8       30.09S

$$

VAZ036>039-050-180500-
CENTRAL FOOTHILLS

CITY           SKY/WX    TMP DP  RH WIND       PRES   REMARKS
CHARLOTTESVILL MOCLDY    38  23  55 CALM      30.05R
CULPEPER*      CLEAR     39  25  56 N6        30.07R
ORANGE*        PTCLDY    34  28  80 CALM      30.07R
GORDONSVILLE*  FAIR      40  23  50 CALM      30.05R
WARRENTON*     FAIR      38  30  71 NW13      30.05R

$$

VAZ055>057-180500-
NORTH AND CENTRAL PIEDMONT

CITY           SKY/WX    TMP DP  RH WIND       PRES   REMARKS
FREDERICKSBRG* PTCLDY    35  29  79 CALM      30.06R
STAFFORD*      PTCLDY    34  24  65 CALM      30.10R

$$

NCZ024-NYZ072-PAZ021-071-VAZ022-071-180500-
OTHER REGIONAL OBSERVATIONS

CITY           SKY/WX    TMP DP  RH WIND       PRES   REMARKS
NEW YORK CITY  CLOUDY    43  26  51 W10G18    29.91S
PHILADELPHIA   PTCLDY    40  21  46 NW21G29   29.99F
PITTSBURGH     FLURRIES  29  21  72 W15G22    30.12R WCI  18
ROANOKE        PTCLDY    40  24  53 NW20G25   30.09S
RICHMOND       MOCLDY    42  31  64 N3        30.05R
RALEIGH        PTCLDY    41  34  76 CALM      30.08S

$$

ANZ530>537-180500-
MARINE OBSERVATIONS

STATION/POSITION TIME  TEMP    WIND        PRES
                       AIR SEA DIR/SP/G
                 (UTC) (F)     (DEG/KT/KT) (MB)
THOMAS PT LIGHT  0400   40 43  310/ 14/ 17 1018.2R
BALT KEY BRIDGE  0400   40     290/ 12/ 13 1016.7F
COVE POINT       0400   41     330/  6/ 10 1017.1R
LEWISETTA        0400   43 44  350/  9/ 14 1017.3R
SOLOMONS ISLAND  0400      44                N/A
PINEY POINT      0400          340/ 15/ 17   N/A

$$



USA.gov is the U.S. government's official web portal to all federal, state and local government web resources and services.